Appleton, WI

3:16 PM CST on December 15, 2019 (GMT -0600)
Outagamie County Regional

Weather History for KATW - October, 2019

Change the Weather History Date:

Thursday, October 31, 2019

  Actual Average Record
Temperature  
Mean Temperature 30 °F -  
Max Temperature 33 °F 53 °F 74 °F (1950)
Min Temperature 24 °F 38 °F 24 °F (1996)
Degree Days  
Heating Degree Days 36    
Moisture  
Dew Point 21 °F    
Average Humidity 70    
Maximum Humidity 100    
Minimum Humidity 47    
Precipitation  
Precipitation 0.00 in - - ()
Sea Level Pressure  
Sea Level Pressure 29.97 in    
Wind  
Wind Speed 11 mph ()    
Max Wind Speed 17 mph    
Max Gust Speed 23 mph    
Visibility 7.2 miles    
Events Snow    
Averages and records for this station are not official NWS values.
T = Trace of Precipitation, MM = Missing Value Source: Averaged Metar Reports

Daily Weather History Graph

Daily Weather History Graph

Search for Another Location

Airport or City:

Astronomy

Oct. 31, 2019 Rise Set
Actual Time 7:29 AM CDT 5:45 PM CDT
Civil Twilight 6:59 AM CDT 6:15 PM CDT
Nautical Twilight 6:25 AM CDT 6:49 PM CDT
Astronomical Twilight 5:51 AM CDT 7:23 PM CDT
Moon 11:24 AM CDT (10/31) 8:34 PM CDT (10/31)
Length of Visible Light 11h 16m
Length of Day
10h 15m
Waxing Crescent, 16% of the Moon is Illuminated
Oct 31
Waxing Crescent
Nov 4
First Quarter
Nov 12
Full
Nov 19
Last Quarter
Nov 26
New

Hourly Weather History & Observations

Time (CDT) Temp. Windchill Dew Point Humidity Pressure Visibility Wind Dir Wind Speed Gust Speed Precip Events Conditions
12:15 AM 30.2 °F 23.4 °F 26.6 °F 86% 30.04 in 10.0 mi North 6.9 mph - N/A Snow Light Snow
12:55 AM 32.0 °F 23.6 °F 23.0 °F 69% 30.04 in 10.0 mi North 10.4 mph - N/A Snow Light Snow
1:15 AM 32.0 °F 22.5 °F 19.4 °F 60% 30.03 in 10.0 mi North 12.7 mph - N/A Snow Light Snow
1:35 AM 32.0 °F 23.0 °F 21.2 °F 64% 30.01 in 10.0 mi North 11.5 mph 16.1 mph N/A   Overcast
1:55 AM 32.0 °F 22.1 °F 21.2 °F 64% 30.02 in 10.0 mi North 13.8 mph - N/A Snow Light Snow
2:15 AM 32.0 °F 22.1 °F 21.2 °F 64% 30.00 in 5.0 mi North 13.8 mph 19.6 mph N/A Snow Light Snow
2:35 AM 30.2 °F 19.8 °F 23.0 °F 75% 29.99 in 7.0 mi North 13.8 mph - N/A Snow Light Snow
2:55 AM 30.2 °F 20.8 °F 23.0 °F 75% 30.01 in 7.0 mi North 11.5 mph 16.1 mph N/A Snow Light Snow
3:15 AM 30.2 °F 20.2 °F 23.0 °F 75% 29.99 in 2.5 mi North 12.7 mph - N/A Snow Light Snow
3:55 AM 30.2 °F 20.8 °F 26.6 °F 86% 29.98 in 5.0 mi North 11.5 mph - N/A Snow Light Snow
4:15 AM 30.2 °F 21.3 °F 28.4 °F 93% 29.98 in 5.0 mi North 10.4 mph - N/A Snow Light Snow
4:35 AM 30.2 °F 21.3 °F 28.4 °F 93% 29.97 in 1.5 mi North 10.4 mph - N/A Snow Light Snow
4:55 AM 28.4 °F 19.1 °F 28.4 °F 100% 29.97 in 3.0 mi North 10.4 mph - N/A Snow Light Snow
5:15 AM 28.4 °F 17.5 °F 28.4 °F 100% 29.97 in 2.5 mi North 13.8 mph - N/A Snow Light Snow
5:45 AM 28.4 °F 17.0 °F 26.6 °F 93% 29.96 in 2.0 mi North 15.0 mph - N/A Snow Light Snow
6:45 AM 28.4 °F 17.0 °F 26.6 °F 93% 29.93 in 2.0 mi North 15.0 mph - N/A Snow Light Snow
7:45 AM 28.4 °F 17.5 °F 26.6 °F 93% 29.92 in 2.0 mi North 13.8 mph - N/A Snow Light Snow
8:45 AM 28.4 °F 16.2 °F 24.8 °F 86% 29.92 in 2.0 mi North 17.3 mph - N/A Snow Light Snow
9:45 AM 28.4 °F 17.0 °F 24.8 °F 86% 29.91 in 2.0 mi NNW 15.0 mph 23.0 mph N/A Snow Light Snow
10:10 AM 30.2 °F 18.9 °F 21.2 °F 69% 29.90 in 5.0 mi North 16.1 mph - N/A Snow Light Snow
10:45 AM 30.2 °F 18.9 °F 19.4 °F 64% 29.90 in 5.0 mi North 16.1 mph - N/A Snow Light Snow
11:10 AM 32.0 °F 23.0 °F 19.4 °F 60% 29.89 in 10.0 mi North 11.5 mph - N/A   Mostly Cloudy
11:45 AM 33.8 °F 25.3 °F 19.4 °F 56% 29.89 in 10.0 mi NNW 11.5 mph - N/A   Mostly Cloudy
12:45 PM 33.8 °F 24.3 °F 19.4 °F 56% 29.88 in 10.0 mi NNW 13.8 mph - N/A   Mostly Cloudy
1:45 PM 33.8 °F 23.5 °F 17.6 °F 52% 29.87 in 10.0 mi NW 16.1 mph - N/A   Mostly Cloudy
3:45 PM 33.8 °F 23.9 °F 17.6 °F 52% 29.89 in 10.0 mi NW 15.0 mph 20.7 mph N/A   Overcast
5:45 PM 32.0 °F 22.1 °F 15.8 °F 51% 29.92 in 10.0 mi NW 13.8 mph 21.9 mph N/A   Overcast
6:45 PM 30.2 °F 19.8 °F 15.8 °F 55% 29.94 in 10.0 mi NW 13.8 mph - N/A   Overcast
7:45 PM 30.2 °F 21.3 °F 15.8 °F 55% 29.97 in 10.0 mi WNW 10.4 mph - N/A   Overcast
8:45 PM 30.2 °F 19.3 °F 12.2 °F 47% 29.99 in 10.0 mi NW 15.0 mph - N/A   Overcast
9:45 PM 28.4 °F 18.0 °F 14.0 °F 55% 30.00 in 10.0 mi WNW 12.7 mph - N/A   Overcast
10:45 PM 26.6 °F 18.2 °F 12.2 °F 55% 30.02 in 10.0 mi WNW 8.1 mph - N/A   Overcast
10:55 PM 26.6 °F 19.1 °F 14.0 °F 59% 30.02 in 10.0 mi West 6.9 mph - N/A   Clear
11:15 PM 26.6 °F 19.1 °F 14.0 °F 59% 30.02 in 10.0 mi West 6.9 mph - N/A   Clear
11:35 PM 26.6 °F 20.0 °F 14.0 °F 59% 30.02 in 10.0 mi West 5.8 mph - N/A   Clear
11:55 PM 24.8 °F 17.9 °F 14.0 °F 64% 30.02 in 10.0 mi WSW 5.8 mph - N/A   Clear